Terminal Aerodrome Forecast
Issued by NWS Huntsville, AL

Home | Current Version | Previous Version | Text Only | Print | Product List | Glossary On
Versions: 1 2 3 4 5 6 7 8 9 10 11 12 13 14 15 16 17 18 19 20 21 22 23 24 25 26 27 28 29 30
000
FTUS44 KHUN 282322
TAFMSL
TAF
KMSL 282322Z 2900/2924 15008KT P6SM SKC
     FM290600 18006KT P6SM FEW250 WS013/20030KT
     FM291500 19010KT P6SM SCT025 SCT050
     FM291900 19011KT P6SM BKN025=

USA.gov is the U.S. government's official web portal to all federal, state and local government web resources and services.